FW93366 Weather Reports


Display with metric or nautical units.
time (UTC)temp
F
wind
direction
speed
MPH
gust
MPH
rain 1hr
in
rain 24hr
in
rain mn
in
humidity
%
barometer
mb
20260505053047 45 202 2.0 5.0 0.06 0.10 0.10 89 1012.6
20260505051604 45 0 0.0 0.0 0.03 0.06 0.06 88 1012.8
20260505041543 46 205 3.0 9.0 0.00 0.03 0.03 79 1012.2
20260505040041 45 281 5.0 11.0 0.00 0.03 0.03 77 1012.2
20260505034543 46 244 6.0 13.0 0.00 0.03 0.03 75 1012.4
20260505033044 46 261 8.0 15.0 0.00 0.03 0.03 77 1012.1
20260505031553 47 259 8.0 12.0 0.00 0.03 0.03 73 1011.7
20260505030044 47 268 3.0 18.0 0.01 0.03 0.03 69 1011.6
20260505024548 47 300 5.0 11.0 0.01 0.03 0.03 71 1011.2
20260505023048 46 259 5.0 18.0 0.01 0.03 0.03 74 1011.2
20260505021549 46 293 4.0 13.0 0.01 0.03 0.03 76 1011.4
20260505020043 47 290 2.0 12.0 0.01 0.02 0.02 80 1012.1
20260505014544 47 306 7.0 14.0 0.01 0.02 0.02 74 1012.2
20260505013045 47 292 7.0 16.0 0.01 0.02 0.02 75 1012.3
20260505011545 48 270 10.0 18.0 0.01 0.02 0.02 71 1012.2
20260505010043 51 312 5.0 12.0 0.00 0.01 0.01 66 1012.3
20260505004539 52 0 1.0 7.0 0.00 0.01 0.01 67 1012.0
20260505003039 53 0 2.0 6.0 0.00 0.01 0.01 65 1011.7
20260505001539 54 0 0.0 5.0 0.00 0.01 0.01 62 1011.6
20260505000047 55 309 1.0 10.0 0.00 0.01 0.01 62 1011.5
20260504234542 56 206 4.0 10.0 0.00 0.02 0.01 58 1011.2
20260504233048 56 300 1.0 6.0 0.00 0.02 0.01 59 1010.8
20260504231546 56 265 7.0 19.0 0.00 0.02 0.01 58 1010.9
20260504230050 56 245 9.0 18.0 0.00 0.02 0.01 60 1011.1
20260504224540 55 304 7.0 16.0 0.00 0.02 0.01 62 1011.5
20260504223041 55 160 2.0 7.0 0.00 0.02 0.01 58 1011.7
20260504221539 54 173 3.0 13.0 0.00 0.02 0.01 63 1012.0
20260504220048 53 162 5.0 18.0 0.00 0.02 0.01 67 1012.2
20260504214538 51 169 9.0 19.0 0.00 0.04 0.01 67 1012.2
20260504213045 50 167 9.0 17.0 0.00 0.04 0.01 67 1012.6
20260504211541 54 0 0.0 5.0 0.00 0.04 0.01 62 1012.5
20260504210045 54 0 2.0 5.0 0.00 0.04 0.01 61 1012.3
20260504204546 53 330 5.0 11.0 0.00 0.04 0.01 68 1012.2
20260504203053 52 12 4.0 15.0 0.00 0.04 0.01 72 1012.3
20260504201546 52 348 5.0 15.0 0.00 0.04 0.01 70 1012.2
20260504200044 52 331 6.0 15.0 0.00 0.04 0.01 69 1012.2
20260504194540 54 348 2.0 15.0 0.00 0.04 0.01 69 1012.2
20260504193049 54 311 5.0 11.0 0.00 0.04 0.01 66 1012.2
20260504191542 55 341 4.0 8.0 0.00 0.04 0.01 64 1012.1
20260504190107 55 212 8.0 14.0 0.00 0.04 0.01 63 1012.1
20260504184544 56 244 5.0 13.0 0.00 0.04 0.01 61 1012.1
20260504183040 55 181 2.0 6.0 0.00 0.04 0.01 61 1012.1
20260504181544 53 155 1.0 4.0 0.00 0.04 0.01 65 1012.0
20260504180040 52 174 3.0 7.0 0.00 0.04 0.01 67 1012.4
20260504174537 51 184 4.0 11.0 0.00 0.04 0.01 73 1012.3
20260504173040 50 150 4.0 12.0 0.00 0.04 0.01 78 1012.5
20260504171539 51 201 5.0 12.0 0.00 0.04 0.01 72 1012.2
20260504081545 45 0 0.0 1.0 0.00 0.03 0.00 85 1012.6